CSG-1

Last updated on Thu Oct 30 2025 00:02:32 GMT+0000 (Coordinated Universal Time)

1 44873U 19092A 25302.50299400 .00000877 00000+0 11667-3 0 9993 2 44873 97.8889 124.4791 0001551 84.1086 276.0304 14.82157340317305
UTC large
Height (km)
Speed (km/s)
/
Latitude / Longitude
Inclination (degrees)
Orbital Period (minutes)
Azimuth
Elevation
Range (km)
Doppler Factor

Next 0 passes for location: London (51.5072 / 0.1276)

Sorry there are no passes over London.